ASRTU-1 (AO-123)

Last updated on Sat Dec 13 2025 00:03:10 GMT+0000 (Coordinated Universal Time)

1 61781U 24199AY 25346.28072874 .00016148 00000+0 52439-3 0 9991 2 61781 97.3252 211.7356 0012806 257.5911 102.3898 15.31935066105270
UTC large
Height (km)
Speed (km/s)
/
Latitude / Longitude
Inclination (degrees)
Orbital Period (minutes)
Azimuth
Elevation
Range (km)
Doppler Factor

Next 0 passes for location: London (51.5072 / 0.1276)

Sorry there are no passes over London.